sat.trackr.live / text

‹ back to catalog

ONEWEB-0123

NORAD 47269 · 2020-100M

PAYLOAD ACTIVE UNKNOWN

§ Identity

Operator
Country
UK
Launch date
2020-12-18
Launch site
VOSTO
Launch vehicle
Mass (kg)
RCS (m²)

Purposes: comms

External: N2YO · Heavens-Above · Gunter

§ Orbital elements

Epoch: 2026-05-25T02:34:01.407936Z

Period
109.72 min
Inclination
87.8950°
Eccentricity
0.0001834
Mean motion
13.12442374 rev/d
Perigee alt
1,212.3 km
Apogee alt
1,215.1 km
Semi-major
7,591.9 km
B*
1.2686e-3
RAAN
355.2603°
Arg perigee
88.6093°
Mean anomaly
271.5246°
Rev number
26,166

§ Raw data

ONEWEB-01231 47269U 20100M   26145.10696074  .00000469  00000+0  12686-2 0  99952 47269  87.8950 355.2603 0001834  88.6093 271.5246 13.12442374261660

JSON: /api/v1/satellites/47269 · /tle

For live sub-satellite position, see the globe view (requires WebGL).

§ Visibility from observer

Set your observer location to see the next 7 days of passes ≥ 10°. The values pass through the URL so the page stays shareable.

No JS? Fill the form by hand. The geolocation button needs JavaScript.